Tracking 25723 objects as of 26-Jun-2022
HD Live streaming from Space Station
objects crossing your sky now

DMSP 5D-2 F13 DEB

Track DMSP 5D-2 F13 DEB now!
10-day predictions


NORAD ID: 40562
Int'l Code: 1995-015DV
Perigee: 795.3 km
Apogee: 822.9 km
Inclination: 98.8 °
Period: 100.9 minutes
Semi major axis: 7180 km
RCS: Unknown
Launch date: March 24, 1995
Source: United States (US)
Launch site: AIR FORCE WESTERN TEST RANGE (AFWTR)

Note: This is SATELLITE DEBRIS
aabbcc
Your satellite tracking list
Your tracking list is empty




NASA's NSSDC Master Catalog

Two Line Element Set (TLE):
1 40562U 95015DV  22176.81787839  .00005013  00000-0  20761-2 0  9993
2 40562  98.7670 193.9454 0019231  62.6045 297.7089 14.26932828374731
Source of the keplerian elements: AFSPC